Time,TemperatureF,DewpointF,PressureIn,WindDirection,WindDirectionDegrees,WindSpeedMPH,WindSpeedGustMPH,Humidity,HourlyPrecipIn,Conditions,Clouds,dailyrainin,SoftwareType,DateUTC
2013-01-30 00:00:00,44.8,43.2,29.94,ESE,113,2.0,2.0,94,0.04,,,0.00,WUHU216HW,2013-01-30 08:00:00,
2013-01-30 00:05:00,44.8,43.2,29.94,ESE,113,2.0,2.0,94,0.04,,,0.00,WUHU216HW,2013-01-30 08:05:00,
2013-01-30 01:00:00,45.2,43.6,29.94,North,0,0.0,0.0,94,0.00,,,0.00,WUHU216HW,2013-01-30 09:00:00,
2013-01-30 01:05:00,45.2,43.6,29.94,North,0,0.0,0.0,94,0.00,,,0.00,WUHU216HW,2013-01-30 09:05:00,
2013-01-30 02:00:00,45.4,43.7,29.94,South,180,0.4,0.4,94,0.02,,,0.00,WUHU216HW,2013-01-30 10:00:00,
2013-01-30 02:05:00,45.4,43.7,29.94,South,180,0.4,0.4,94,0.02,,,0.00,WUHU216HW,2013-01-30 10:05:00,
2013-01-30 03:00:00,45.7,44.1,29.95,SSE,158,1.8,1.8,94,0.01,,,0.03,WUHU216HW,2013-01-30 11:00:00,
2013-01-30 03:05:00,45.7,44.1,29.95,SSE,158,1.8,1.8,94,0.01,,,0.03,WUHU216HW,2013-01-30 11:05:00,
2013-01-30 04:00:00,45.9,44.3,29.95,SSE,158,1.1,1.1,94,0.01,,,0.04,WUHU216HW,2013-01-30 12:00:00,
2013-01-30 04:05:00,45.9,44.3,29.95,SSE,158,1.1,1.1,94,0.01,,,0.04,WUHU216HW,2013-01-30 12:05:00,
2013-01-30 05:00:00,45.9,44.6,29.95,South,180,0.7,0.7,95,0.00,,,0.05,WUHU216HW,2013-01-30 13:00:00,
2013-01-30 05:05:00,45.9,44.6,29.95,South,180,0.7,0.7,95,0.00,,,0.05,WUHU216HW,2013-01-30 13:05:00,
2013-01-30 06:00:00,45.9,44.6,29.95,SSW,203,0.7,0.7,95,0.01,,,0.05,WUHU216HW,2013-01-30 14:00:00,
2013-01-30 06:05:00,45.9,44.6,29.95,SSW,203,0.7,0.7,95,0.01,,,0.05,WUHU216HW,2013-01-30 14:05:00,
2013-01-30 07:00:00,46.3,44.9,29.96,SSW,203,1.8,1.8,95,0.01,,,0.06,WUHU216HW,2013-01-30 15:00:00,
2013-01-30 07:05:00,46.3,44.9,29.96,SSW,203,1.8,1.8,95,0.01,,,0.06,WUHU216HW,2013-01-30 15:05:00,
2013-01-30 08:00:00,46.4,45.1,29.97,North,0,0.0,0.0,95,0.01,,,0.07,WUHU216HW,2013-01-30 16:00:00,
2013-01-30 08:05:00,46.4,45.1,29.97,North,0,0.0,0.0,95,0.01,,,0.07,WUHU216HW,2013-01-30 16:05:00,
2013-01-30 09:00:00,46.8,45.5,29.97,North,0,0.0,0.0,95,0.00,,,0.08,WUHU216HW,2013-01-30 17:00:00,
2013-01-30 09:05:00,46.8,45.5,29.97,North,0,0.0,0.0,95,0.00,,,0.08,WUHU216HW,2013-01-30 17:05:00,
2013-01-30 10:00:00,47.2,46.1,29.99,South,180,0.4,0.4,96,0.01,,,0.08,WUHU216HW,2013-01-30 18:00:00,
2013-01-30 10:05:00,47.2,46.1,29.99,South,180,0.4,0.4,96,0.01,,,0.08,WUHU216HW,2013-01-30 18:05:00,
2013-01-30 11:00:00,47.9,46.8,30.00,North,0,0.0,0.0,96,0.00,,,0.09,WUHU216HW,2013-01-30 19:00:00,
2013-01-30 11:05:00,47.9,46.8,30.00,North,0,0.0,0.0,96,0.00,,,0.09,WUHU216HW,2013-01-30 19:05:00,
2013-01-30 12:00:00,48.4,47.4,29.99,SSE,158,3.4,3.4,96,0.01,,,0.09,WUHU216HW,2013-01-30 20:00:00,
2013-01-30 12:05:00,48.4,47.4,29.99,SSW,203,2.7,3.4,96,0.01,,,0.10,WUHU216HW,2013-01-30 20:05:00,
2013-01-30 12:10:00,48.4,47.4,29.99,SW,225,2.2,3.4,96,0.01,,,0.10,WUHU216HW,2013-01-30 20:10:00,
2013-01-30 12:15:00,48.6,47.5,29.99,SSE,157,1.5,2.7,96,0.01,,,0.10,WUHU216HW,2013-01-30 20:15:00,
2013-01-30 12:20:00,48.6,47.5,29.99,South,179,0.9,4.0,96,0.01,,,0.10,WUHU216HW,2013-01-30 20:20:00,
2013-01-30 12:25:00,48.6,47.5,29.99,South,180,0.7,4.0,96,0.01,,,0.10,WUHU216HW,2013-01-30 20:25:00,
2013-01-30 12:30:00,48.6,47.5,29.99,SSW,203,1.6,4.0,96,0.00,,,0.10,WUHU216HW,2013-01-30 20:30:00,
2013-01-30 12:35:00,48.6,47.5,29.99,SSE,158,0.4,4.0,96,0.00,,,0.10,WUHU216HW,2013-01-30 20:35:00,
2013-01-30 12:40:00,48.8,47.7,29.99,SE,135,2.2,3.6,96,0.00,,,0.10,WUHU216HW,2013-01-30 20:40:00,
2013-01-30 12:45:00,48.8,47.7,29.99,SSE,162,2.0,3.6,96,0.00,,,0.10,WUHU216HW,2013-01-30 20:45:00,
2013-01-30 12:50:00,49.0,47.9,29.99,SSE,158,1.8,2.5,96,0.00,,,0.10,WUHU216HW,2013-01-30 20:50:00,
2013-01-30 12:55:00,48.8,47.7,29.99,SSE,163,1.1,2.7,96,0.00,,,0.10,WUHU216HW,2013-01-30 20:55:00,
2013-01-30 13:00:00,48.8,47.7,29.99,SSW,203,1.3,2.7,96,0.00,,,0.10,WUHU216HW,2013-01-30 21:00:00,
2013-01-30 13:05:00,48.8,47.7,29.99,SSW,203,2.5,2.5,96,0.00,,,0.10,WUHU216HW,2013-01-30 21:05:00,
2013-01-30 13:10:00,48.6,47.5,29.99,SW,225,2.5,3.6,96,0.00,,,0.10,WUHU216HW,2013-01-30 21:10:00,
2013-01-30 13:15:00,48.6,47.5,29.99,SSW,203,1.8,3.6,96,0.00,,,0.10,WUHU216HW,2013-01-30 21:15:00,
2013-01-30 13:20:00,48.8,47.7,29.99,SSW,206,1.5,3.4,96,0.00,,,0.10,WUHU216HW,2013-01-30 21:20:00,
2013-01-30 13:25:00,48.6,47.5,29.99,South,180,1.6,3.6,96,0.00,,,0.10,WUHU216HW,2013-01-30 21:25:00,
2013-01-30 13:30:00,48.6,47.5,29.99,South,180,1.1,3.6,96,0.00,,,0.10,WUHU216HW,2013-01-30 21:30:00,
2013-01-30 14:00:00,48.8,47.7,29.99,SSW,203,1.8,1.8,96,0.00,,,0.10,WUHU216HW,2013-01-30 22:00:00,
2013-01-30 14:05:00,48.8,47.7,29.99,SSE,156,1.8,2.5,96,0.01,,,0.11,WUHU216HW,2013-01-30 22:05:00,
2013-01-30 14:07:00,48.8,47.7,29.99,South,180,1.6,2.2,96,0.01,,,0.11,WUHU216HW,2013-01-30 22:07:00,
2013-01-30 14:10:00,48.8,47.7,29.99,South,180,1.6,2.7,96,0.01,,,0.11,WUHU216HW,2013-01-30 22:10:00,
2013-01-30 14:15:00,48.8,47.7,29.99,South,180,1.6,2.7,96,0.01,,,0.11,WUHU216HW,2013-01-30 22:15:00,
2013-01-30 15:00:00,48.8,47.7,29.98,South,180,0.4,0.4,96,0.01,,,0.11,WUHU216HW,2013-01-30 23:00:00,
2013-01-30 15:05:00,48.8,47.7,29.98,South,180,0.4,0.4,96,0.01,,,0.11,WUHU216HW,2013-01-30 23:05:00,
2013-01-30 16:00:00,48.6,47.5,29.99,SSE,158,1.1,1.1,96,0.00,,,0.11,WUHU216HW,2013-01-31 00:00:00,
2013-01-30 16:05:00,48.6,47.5,29.99,SSE,158,1.1,1.1,96,0.00,,,0.11,WUHU216HW,2013-01-31 00:05:00,
2013-01-30 17:00:00,48.4,47.4,29.98,SSW,203,0.7,0.7,96,0.00,,,0.11,WUHU216HW,2013-01-31 01:00:00,
2013-01-30 17:05:00,48.4,47.4,29.98,South,185,1.1,1.8,96,0.00,,,0.11,WUHU216HW,2013-01-31 01:05:00,
2013-01-30 17:10:00,48.4,47.4,29.98,South,180,0.6,1.8,96,0.00,,,0.11,WUHU216HW,2013-01-31 01:10:00,
2013-01-30 17:15:00,48.6,47.5,29.98,SSE,158,1.6,1.6,96,0.00,,,0.11,WUHU216HW,2013-01-31 01:15:00,
2013-01-30 17:20:00,48.6,47.5,29.98,South,180,0.0,1.6,96,0.00,,,0.11,WUHU216HW,2013-01-31 01:20:00,
2013-01-30 17:25:00,48.6,47.5,29.99,SSE,166,0.5,1.6,96,0.00,,,0.11,WUHU216HW,2013-01-31 01:25:00,
2013-01-30 17:30:00,48.6,47.5,29.99,South,180,1.8,1.8,96,0.00,,,0.11,WUHU216HW,2013-01-31 01:30:00,
2013-01-30 17:35:00,48.6,47.5,29.98,South,180,0.4,1.8,96,0.00,,,0.11,WUHU216HW,2013-01-31 01:35:00,
2013-01-30 17:40:00,48.6,47.5,29.98,South,180,0.5,1.8,96,0.00,,,0.11,WUHU216HW,2013-01-31 01:40:00,
2013-01-30 17:45:00,48.6,47.5,29.98,South,189,1.0,2.0,96,0.00,,,0.11,WUHU216HW,2013-01-31 01:45:00,
2013-01-30 17:50:00,48.6,47.5,29.98,SSW,203,0.6,2.0,96,0.00,,,0.11,WUHU216HW,2013-01-31 01:50:00,
2013-01-30 17:55:00,48.4,47.4,29.98,South,185,0.3,2.0,96,0.00,,,0.11,WUHU216HW,2013-01-31 01:55:00,
2013-01-30 18:00:00,48.4,47.4,29.98,SSE,158,0.7,2.0,96,0.00,,,0.11,WUHU216HW,2013-01-31 02:00:00,
2013-01-30 18:05:00,48.4,47.4,29.98,South,180,0.6,1.8,96,0.00,,,0.11,WUHU216HW,2013-01-31 02:05:00,
2013-01-30 18:10:00,48.4,47.4,29.98,South,180,0.4,1.3,96,0.00,,,0.11,WUHU216HW,2013-01-31 02:10:00,
2013-01-30 18:15:00,48.4,47.4,29.98,South,184,1.3,1.8,96,0.00,,,0.11,WUHU216HW,2013-01-31 02:15:00,
2013-01-30 18:20:00,48.4,47.4,29.98,SSW,196,1.1,2.0,96,0.00,,,0.11,WUHU216HW,2013-01-31 02:20:00,
2013-01-30 18:25:00,48.4,47.4,29.98,SSW,203,0.9,2.0,96,0.00,,,0.11,WUHU216HW,2013-01-31 02:25:00,
2013-01-30 18:30:00,48.4,47.4,29.98,South,180,1.2,2.7,96,0.00,,,0.11,WUHU216HW,2013-01-31 02:30:00,
2013-01-30 18:35:00,48.4,47.4,29.98,South,180,0.9,2.7,96,0.00,,,0.11,WUHU216HW,2013-01-31 02:35:00,
2013-01-30 18:40:00,48.4,47.4,29.98,South,180,0.4,1.6,96,0.00,,,0.11,WUHU216HW,2013-01-31 02:40:00,
2013-01-30 18:45:00,48.4,47.4,29.97,South,186,1.0,1.3,96,0.00,,,0.11,WUHU216HW,2013-01-31 02:45:00,
2013-01-30 18:50:00,48.4,47.4,29.97,South,180,1.6,2.2,96,0.00,,,0.11,WUHU216HW,2013-01-31 02:50:00,
2013-01-30 18:55:00,48.4,47.4,29.97,SW,225,0.9,2.2,96,0.00,,,0.11,WUHU216HW,2013-01-31 02:55:00,
2013-01-30 19:00:00,48.4,47.4,29.98,South,180,1.8,1.8,96,0.00,,,0.11,WUHU216HW,2013-01-31 03:00:00,
2013-01-30 19:05:00,48.4,47.4,29.97,South,185,1.2,1.8,96,0.00,,,0.11,WUHU216HW,2013-01-31 03:05:00,
2013-01-30 19:10:00,48.4,47.4,29.97,South,180,0.4,1.8,96,0.00,,,0.11,WUHU216HW,2013-01-31 03:10:00,
2013-01-30 19:15:00,48.4,47.4,29.97,South,176,1.4,1.8,96,0.00,,,0.11,WUHU216HW,2013-01-31 03:15:00,
2013-01-30 19:20:00,48.4,47.4,29.97,South,170,1.0,2.0,96,0.00,,,0.11,WUHU216HW,2013-01-31 03:20:00,
2013-01-30 19:25:00,48.4,47.4,29.97,SW,225,1.3,2.0,96,0.00,,,0.11,WUHU216HW,2013-01-31 03:25:00,
2013-01-30 19:30:00,48.4,47.4,29.98,SSW,203,0.6,1.8,96,0.00,,,0.11,WUHU216HW,2013-01-31 03:30:00,
2013-01-30 19:35:00,48.4,47.4,29.97,South,180,0.7,1.3,96,0.00,,,0.11,WUHU216HW,2013-01-31 03:35:00,
2013-01-30 19:40:00,48.4,47.4,29.97,South,180,1.6,2.0,96,0.00,,,0.11,WUHU216HW,2013-01-31 03:40:00,
2013-01-30 19:45:00,48.4,47.4,29.97,SSW,203,0.9,2.5,96,0.00,,,0.11,WUHU216HW,2013-01-31 03:45:00,
2013-01-30 19:50:00,48.2,47.2,29.97,South,180,1.1,2.5,96,0.00,,,0.11,WUHU216HW,2013-01-31 03:50:00,
2013-01-30 19:55:00,48.2,47.2,29.97,SSW,198,2.3,2.9,96,0.00,,,0.11,WUHU216HW,2013-01-31 03:55:00,
2013-01-30 20:00:00,48.2,47.2,29.97,SSW,193,1.1,2.9,96,0.00,,,0.11,WUHU216HW,2013-01-31 04:00:00,
2013-01-30 20:05:00,48.2,47.2,29.97,South,180,2.0,2.5,96,0.00,,,0.11,WUHU216HW,2013-01-31 04:05:00,
2013-01-30 20:10:00,48.2,47.2,29.97,SW,225,2.5,2.5,96,0.01,,,0.12,WUHU216HW,2013-01-31 04:10:00,
2013-01-30 20:15:00,48.2,47.2,29.97,South,180,0.7,2.5,96,0.01,,,0.12,WUHU216HW,2013-01-31 04:15:00,
2013-01-30 20:20:00,48.1,47.0,29.97,SSW,196,1.1,2.5,96,0.01,,,0.12,WUHU216HW,2013-01-31 04:20:00,
2013-01-30 20:25:00,48.2,47.2,29.97,SSW,203,0.9,2.5,96,0.01,,,0.12,WUHU216HW,2013-01-31 04:25:00,
2013-01-30 20:30:00,48.1,47.0,29.97,SSW,202,0.9,2.7,96,0.01,,,0.12,WUHU216HW,2013-01-31 04:30:00,
2013-01-30 20:35:00,48.1,47.0,29.97,South,180,1.8,2.7,96,0.01,,,0.12,WUHU216HW,2013-01-31 04:35:00,
2013-01-30 20:40:00,48.1,47.0,29.97,South,180,2.0,2.0,96,0.01,,,0.12,WUHU216HW,2013-01-31 04:40:00,
2013-01-30 20:45:00,48.1,47.0,29.97,SSW,203,1.3,2.5,96,0.01,,,0.12,WUHU216HW,2013-01-31 04:45:00,
2013-01-30 20:50:00,48.1,47.0,29.97,South,176,1.7,2.9,96,0.01,,,0.12,WUHU216HW,2013-01-31 04:50:00,
2013-01-30 20:55:00,48.1,47.0,29.97,SSE,158,2.0,2.9,96,0.01,,,0.12,WUHU216HW,2013-01-31 04:55:00,
2013-01-30 21:00:00,48.1,47.0,29.97,South,191,2.2,2.9,96,0.01,,,0.12,WUHU216HW,2013-01-31 05:00:00,
2013-01-30 21:01:00,48.1,47.0,29.97,South,180,1.6,2.9,96,0.01,,,0.12,WUHU216HW,2013-01-31 05:01:00,
2013-01-30 21:06:00,48.1,47.0,29.97,South,180,1.8,2.7,96,0.01,,,0.12,WUHU216HW,2013-01-31 05:06:00,
2013-01-30 21:07:00,48.1,47.0,29.98,SSW,203,0.0,0.0,96,0.01,,,0.12,WUHU216HW,2013-01-31 05:07:00,
2013-01-30 21:11:00,48.1,47.0,29.98,SSW,203,0.0,1.8,96,0.01,,,0.12,WUHU216HW,2013-01-31 05:11:00,
2013-01-30 21:16:00,48.1,47.0,29.98,SSW,203,0.0,1.1,96,0.01,,,0.12,WUHU216HW,2013-01-31 05:16:00,
2013-01-30 22:00:00,47.9,46.8,29.99,SSW,203,0.7,0.7,96,0.00,,,0.12,WUHU216HW,2013-01-31 06:00:00,
2013-01-30 22:05:00,47.9,46.8,29.99,SSW,203,0.7,0.7,96,0.00,,,0.12,WUHU216HW,2013-01-31 06:05:00,
2013-01-30 23:00:00,47.7,46.6,29.98,SSE,158,1.3,1.3,96,0.01,,,0.12,WUHU216HW,2013-01-31 07:00:00,
2013-01-30 23:05:00,47.7,46.6,29.98,SSE,158,1.3,1.3,96,0.01,,,0.12,WUHU216HW,2013-01-31 07:05:00,